DW8633 Weather Reports


Display with metric or nautical units.
time (UTC)temp
F
wind
direction
speed
MPH
gust
MPH
rain 1hr
in
rain 24hr
in
rain mn
in
humidity
%
barometer
mb
20260505003546 44 360 17.0 25.0 0.00 0.00 0.00 45 930.1
20260505003145 44 360 20.0 28.0 0.00 0.00 0.00 44 930.0
20260505002545 44 360 21.0 28.0 0.00 0.00 0.00 44 930.0
20260505002044 45 360 19.0 28.0 0.00 0.00 0.00 44 929.9
20260505001545 45 360 19.0 28.0 0.00 0.00 0.00 43 929.9
20260505001043 45 360 20.0 28.0 0.00 0.00 0.00 43 929.9
20260505000546 45 360 21.0 29.0 0.00 0.00 0.00 43 929.8
20260505000046 46 360 19.0 29.0 0.00 0.00 0.00 42 929.8
20260504235544 46 360 19.0 29.0 0.00 0.00 0.00 42 929.8
20260504235044 46 360 22.0 29.0 0.00 0.00 0.00 41 929.7
20260504234609 48 360 23.0 30.0 0.00 0.00 0.00 40 929.7
20260504234042 47 360 21.0 35.0 0.00 0.00 0.00 41 929.6
20260504233545 47 360 23.0 35.0 0.00 0.00 0.00 42 929.6
20260504232542 46 360 20.0 32.0 0.00 0.00 0.00 42 929.7
20260504232041 48 360 24.0 32.0 0.00 0.00 0.00 41 929.6
20260504231551 47 360 21.0 32.0 0.00 0.00 0.00 42 929.6
20260504231041 47 360 23.0 32.0 0.00 0.00 0.00 43 929.5
20260504230542 46 360 24.0 31.0 0.00 0.00 0.00 44 929.5
20260504230041 47 360 24.0 31.0 0.00 0.00 0.00 42 929.5
20260504225542 47 360 21.0 33.0 0.00 0.00 0.00 44 929.5
20260504225047 48 360 23.0 33.0 0.00 0.00 0.00 43 929.4
20260504224541 48 360 24.0 32.0 0.00 0.00 0.00 43 929.4
20260504224040 48 360 23.0 33.0 0.00 0.00 0.00 43 929.4
20260504223540 47 360 24.0 32.0 0.00 0.00 0.00 43 929.4
20260504222540 47 360 24.0 32.0 0.00 0.00 0.00 45 929.5
20260504222041 47 360 22.0 33.0 0.00 0.00 0.00 46 929.4
20260504221544 47 360 23.0 33.0 0.00 0.00 0.00 46 929.4
20260504221041 47 360 24.0 33.0 0.00 0.00 0.00 46 929.5
20260504220540 48 360 22.0 33.0 0.00 0.00 0.00 46 929.6
20260504220040 48 360 21.0 33.0 0.00 0.00 0.00 47 929.6
20260504215540 48 360 18.0 29.0 0.00 0.00 0.00 48 929.5
20260504215039 48 360 23.0 33.0 0.00 0.00 0.00 47 929.5
20260504214542 48 360 22.0 33.0 0.00 0.00 0.00 47 929.5
20260504214040 49 360 22.0 30.0 0.00 0.00 0.00 46 929.5
20260504213540 48 360 24.0 30.0 0.00 0.00 0.00 46 929.4
20260504213143 48 360 24.0 36.0 0.00 0.00 0.00 45 929.4
20260504212540 48 360 22.0 36.0 0.00 0.00 0.00 46 929.4
20260504212042 50 313 26.0 33.0 0.00 0.00 0.00 44 929.5
20260504211540 48 360 20.0 34.0 0.00 0.00 0.00 45 929.4
20260504211039 49 360 22.0 34.0 0.00 0.00 0.00 44 929.3
20260504210539 49 360 25.0 31.0 0.00 0.00 0.00 45 929.5
20260504210047 48 360 22.0 32.0 0.00 0.00 0.00 45 929.4
20260504205539 47 360 23.0 31.0 0.00 0.00 0.00 45 929.3
20260504205041 47 360 23.0 32.0 0.00 0.00 0.00 45 929.5
20260504204618 48 360 25.0 35.0 0.00 0.00 0.00 44 929.4
20260504204038 47 360 26.0 35.0 0.00 0.00 0.00 45 929.6
20260504203542 47 360 23.0 34.0 0.00 0.00 0.00 45 929.5
20260504203138 47 360 21.0 32.0 0.00 0.00 0.00 45 929.6
20260504202537 47 360 20.0 32.0 0.00 0.00 0.00 46 929.6
20260504202040 47 360 24.0 32.0 0.00 0.00 0.00 46 929.6
20260504201537 46 360 23.0 32.0 0.00 0.00 0.00 46 929.5
20260504201036 46 360 23.0 32.0 0.00 0.00 0.00 46 929.5
20260504200537 47 360 24.0 32.0 0.00 0.00 0.00 46 929.5
20260504200039 47 360 24.0 32.0 0.00 0.00 0.00 45 929.7
20260504195536 47 360 25.0 32.0 0.00 0.00 0.00 44 929.6
20260504195039 48 360 21.0 34.0 0.00 0.00 0.00 45 929.5
20260504194545 47 360 25.0 34.0 0.00 0.00 0.00 46 929.5
20260504194035 47 360 22.0 33.0 0.00 0.00 0.00 46 929.6
20260504193536 47 360 23.0 29.0 0.00 0.00 0.00 46 929.6
20260504193138 46 360 21.0 29.0 0.00 0.00 0.00 48 929.6
20260504192535 46 360 23.0 29.0 0.00 0.00 0.00 48 929.7
20260504192035 47 360 23.0 28.0 0.00 0.00 0.00 49 929.7
20260504191535 46 360 23.0 28.0 0.00 0.00 0.00 48 929.6
20260504191035 46 360 21.0 31.0 0.00 0.00 0.00 48 929.7
20260504190535 47 360 23.0 31.0 0.00 0.00 0.00 47 929.6
20260504190037 46 360 23.0 29.0 0.00 0.00 0.00 47 929.6
20260504185534 47 360 19.0 29.0 0.00 0.00 0.00 47 929.7
20260504185034 48 360 20.0 31.0 0.00 0.00 0.00 47 929.6
20260504184534 47 360 24.0 34.0 0.00 0.00 0.00 49 929.6
20260504184034 46 360 26.0 34.0 0.00 0.00 0.00 48 929.7
20260504183533 47 360 23.0 32.0 0.00 0.00 0.00 48 929.6
20260504182537 47 360 22.0 31.0 0.00 0.00 0.00 48 929.6
20260504182034 46 360 24.0 33.0 0.00 0.00 0.00 48 929.6
20260504181532 46 360 22.0 33.0 0.00 0.00 0.00 50 929.6
20260504181031 46 360 23.0 33.0 0.00 0.00 0.00 48 929.6
20260504180532 47 360 26.0 34.0 0.00 0.00 0.00 47 929.5
20260504180131 47 360 27.0 34.0 0.00 0.00 0.00 47 929.5
20260504175530 48 360 25.0 33.0 0.00 0.00 0.00 47 929.5
20260504175031 47 360 25.0 36.0 0.00 0.00 0.00 48 929.6
20260504174530 47 360 26.0 37.0 0.00 0.00 0.00 47 929.5
20260504174030 48 360 26.0 38.0 0.00 0.00 0.00 49 929.5
20260504173533 48 360 26.0 38.0 0.00 0.00 0.00 48 929.5
20260504172530 48 360 26.0 35.0 0.00 0.00 0.00 47 929.3
20260504172030 48 360 27.0 35.0 0.00 0.00 0.00 49 929.3
20260504171540 48 360 24.0 36.0 0.00 0.00 0.00 48 929.4
20260504171030 48 360 26.0 36.0 0.00 0.00 0.00 49 929.4
20260504170530 48 360 23.0 36.0 0.00 0.00 0.00 49 929.3
20260504151027 46 360 27.0 35.0 0.00 0.00 0.00 50 929.1
20260504150525 47 360 25.0 34.0 0.00 0.00 0.00 52 929.0
20260504141025 45 360 21.0 27.0 0.00 0.00 0.00 60 929.0
20260504140520 45 360 16.0 21.0 0.00 0.00 0.00 60 929.0
20260504130518 41 360 11.0 14.0 0.00 0.00 0.00 64 928.8
20260504110503 42 360 10.0 14.0 0.00 0.00 0.00 57 927.4
20260504100552 44 360 13.0 18.0 0.00 0.00 0.00 52 926.9
20260504081539 48 360 14.0 20.0 0.00 0.00 0.00 56 926.4
20260504081037 48 360 11.0 18.0 0.00 0.00 0.00 57 926.1
20260504080535 48 360 10.0 18.0 0.00 0.00 0.00 57 926.0
20260504050517 55 16 5.0 11.0 0.00 0.00 0.00 46 923.5
20260504050015 55 5 7.0 15.0 0.00 0.00 0.00 46 923.5
20260504045516 55 13 8.0 15.0 0.00 0.00 0.00 45 923.4
20260504045014 56 10 5.0 12.0 0.00 0.00 0.00 45 923.3
20260504044523 56 12 8.0 14.0 0.00 0.00 0.00 44 923.5
20260504044018 56 9 10.0 15.0 0.00 0.00 0.00 45 923.5
20260504043514 56 5 10.0 15.0 0.00 0.00 0.00 44 923.3
20260504043115 57 355 10.0 14.0 0.00 0.00 0.00 44 923.2
20260504042514 57 355 10.0 14.0 0.00 0.00 0.00 44 923.0
20260504042014 57 360 9.0 15.0 0.00 0.00 0.00 43 922.9
20260504041514 58 360 10.0 15.0 0.00 0.00 0.00 43 922.8
20260504041014 58 360 10.0 18.0 0.00 0.00 0.00 42 922.8
20260504040520 58 360 12.0 18.0 0.00 0.00 0.00 42 922.8
20260504040017 59 5 12.0 16.0 0.00 0.00 0.00 41 922.6
20260504035514 59 360 11.0 22.0 0.00 0.00 0.00 41 922.6
20260504035014 60 360 13.0 22.0 0.00 0.00 0.00 40 922.4
20260504034513 60 360 15.0 22.0 0.00 0.00 0.00 40 922.4
20260504034013 60 360 14.0 25.0 0.00 0.00 0.00 39 922.3
20260504033513 61 360 16.0 25.0 0.00 0.00 0.00 38 922.2
20260504033112 62 360 19.0 34.0 0.00 0.00 0.00 37 922.1
20260504032512 63 355 21.0 34.0 0.00 0.00 0.00 37 922.0
20260504032015 65 355 27.0 34.0 0.00 0.00 0.00 35 921.8
20260504031512 64 323 16.0 25.0 0.00 0.00 0.00 36 921.1
20260504031011 64 316 13.0 19.0 0.00 0.00 0.00 36 921.0
20260504030511 64 292 13.0 19.0 0.00 0.00 0.00 36 921.0
20260504030013 65 295 14.0 22.0 0.00 0.00 0.00 35 920.9
20260504025511 65 295 17.0 22.0 0.00 0.00 0.00 35 920.9
20260504025011 65 302 14.0 21.0 0.00 0.00 0.00 35 920.8
20260504024511 65 313 15.0 21.0 0.00 0.00 0.00 35 920.9
20260504024010 66 300 16.0 23.0 0.00 0.00 0.00 35 920.8
20260504023510 66 309 14.0 22.0 0.00 0.00 0.00 35 920.7
20260504023110 66 314 14.0 23.0 0.00 0.00 0.00 34 920.7
20260504022511 67 300 14.0 23.0 0.00 0.00 0.00 34 920.6
20260504022010 67 304 16.0 23.0 0.00 0.00 0.00 34 920.7
20260504021510 67 303 15.0 25.0 0.00 0.00 0.00 34 920.8
20260504021009 68 306 17.0 25.0 0.00 0.00 0.00 33 920.7
20260504020510 68 326 18.0 27.0 0.00 0.00 0.00 33 920.6
20260504020015 69 310 20.0 26.0 0.00 0.00 0.00 33 920.8
20260504015509 69 317 19.0 26.0 0.00 0.00 0.00 32 920.6
20260504015010 70 313 20.0 26.0 0.00 0.00 0.00 31 920.6
20260504014510 70 323 18.0 24.0 0.00 0.00 0.00 28 920.5
20260504014011 70 302 17.0 29.0 0.00 0.00 0.00 27 920.5
20260504013509 71 309 22.0 30.0 0.00 0.00 0.00 26 920.6
20260504013109 71 302 18.0 30.0 0.00 0.00 0.00 28 920.5
20260504012515 71 292 17.0 24.0 0.00 0.00 0.00 28 920.5
20260504012015 71 263 17.0 24.0 0.00 0.00 0.00 27 920.4
20260504011509 71 273 13.0 23.0 0.00 0.00 0.00 28 920.5
20260504011008 71 272 17.0 23.0 0.00 0.00 0.00 27 920.5
20260504010509 71 279 17.0 24.0 0.00 0.00 0.00 26 920.6
20260504010007 72 281 19.0 29.0 0.00 0.00 0.00 26 920.7
20260504005506 72 294 19.0 30.0 0.00 0.00 0.00 25 920.7
20260504005007 72 286 22.0 30.0 0.00 0.00 0.00 25 920.7
20260504004506 73 286 22.0 29.0 0.00 0.00 0.00 24 920.9
20260504004011 73 298 21.0 29.0 0.00 0.00 0.00 23 920.8